Wind_Speed
29 29 28 28 28 28 28 29 30 30 30 32 33 32 31 31 32 32 32 32 33 34 36 37 37 38 39 39 39 39 40 41 41 42 42 42 43 44 44 44 45 45 45 45
28 28 27 28 28 29 29 30 30 31 30 32 33 32 31 31 32 32 32 32 33 34 35 36 37 37 38 38 38 39 40 41 41 41 42 43 43 44 45 45 46 47 46 46
28 28 28 28 28 29 30 30 31 31 31 32 34 33 31 31 32 32 32 33 33 34 35 36 37 37 38 38 38 38 39 41 41 41 42 43 43 44 45 45 46 46 46 46
29 28 29 29 29 30 30 30 31 31 32 32 33 35 31 32 32 32 33 33 34 34 35 35 36 37 38 38 39 39 39 40 41 41 42 43 44 44 45 45 46 46 47 47
29 29 29 30 30 30 31 30 31 31 32 33 33 35 34 33 33 33 34 34 34 34 35 35 36 37 38 39 39 40 40 40 40 41 42 43 43 44 45 45 45 46 47 47
30 30 30 30 29 30 31 32 32 32 33 33 33 35 35 34 33 33 34 34 34 35 35 35 36 36 37 38 38 39 40 41 41 42 43 44 44 44 45 46 47 47 47 48
31 31 31 31 30 30 30 31 33 34 34 35 34 35 35 34 34 34 34 34 35 35 35 35 35 36 37 37 38 39 39 41 42 42 43 44 44 44 45 46 47 48 48 48
32 31 30 31 31 31 30 31 32 35 36 36 35 36 35 35 35 35 35 35 35 35 36 35 35 36 37 37 38 39 40 41 41 42 42 43 43 44 45 46 46 47 49 50
32 32 31 31 31 32 32 32 33 34 36 37 36 36 36 35 35 35 35 36 36 37 36 37 36 36 37 38 39 41 42 42 42 42 42 43 44 45 45 45 45 46 48 50
33 34 33 32 31 31 32 33 33 34 36 37 36 35 35 34 34 35 36 36 37 37 37 37 38 38 38 39 40 41 42 42 43 44 44 44 44 45 45 46 45 46 47 48
33 34 34 33 32 32 32 32 33 34 35 36 37 36 35 35 35 35 36 37 37 37 38 38 38 39 39 39 40 41 42 43 44 44 45 45 45 45 46 46 46 46 47 48
33 34 35 34 33 33 33 33 33 34 35 36 38 37 34 35 36 36 36 37 38 38 38 38 39 40 40 41 41 41 42 43 44 44 45 46 46 46 46 47 47 48 48 48
33 34 34 34 34 33 34 34 34 35 35 36 37 37 35 35 35 36 36 37 37 38 37 38 38 39 40 40 41 41 42 43 44 44 45 46 46 47 47 48 49 49 49 49
31 33 33 34 33 33 34 34 33 34 35 36 36 36 35 35 36 36 35 36 37 37 38 38 38 39 39 40 40 41 42 43 43 44 45 46 47 47 48 49 49 50 50 51
32 32 32 33 33 34 34 34 34 35 36 38 36 36 35 34 35 36 36 37 38 38 38 38 39 39 39 39 40 40 41 43 44 45 45 45 46 47 48 49 49 50 50 52
32 33 33 33 33 35 35 34 35 35 36 37 38 37 35 35 36 36 37 37 37 37 38 39 39 39 39 40 40 40 41 42 43 44 45 45 46 47 48 49 50 50 51 52
33 34 34 35 34 35 35 34 35 36 36 37 38 37 36 36 36 37 37 37 38 38 38 39 39 39 39 39 40 40 41 41 42 43 45 45 46 47 49 50 50 51 51 52
34 34 35 36 35 36 34 33 35 36 36 36 37 36 36 36 37 38 38 38 38 38 37 38 39 39 39 40 40 40 41 42 43 44 45 46 46 47 48 49 50 51 52 53
33 33 34 35 37 38 35 34 35 37 37 35 37 37 37 37 38 38 38 39 39 39 39 39 39 40 40 41 41 42 42 43 44 44 45 46 46 47 48 49 50 51 52 53
33 34 35 36 37 38 36 35 35 36 36 34 36 37 37 38 38 37 38 39 40 40 40 40 40 41 42 42 43 43 44 44 44 45 45 46 47 48 49 50 51 52 52 53
34 35 35 36 37 38 36 36 36 37 37 37 37 38 38 39 39 38 38 39 40 41 41 41 42 42 43 43 44 44 45 45 46 46 47 48 48 49 50 51 52 52 53 54
34 35 36 36 37 37 37 37 37 38 38 38 38 38 38 39 39 39 39 40 41 41 42 43 43 44 44 45 46 46 46 47 47 48 48 49 50 50 51 51 52 53 53 54
35 36 37 38 38 38 38 38 38 38 39 39 39 39 39 39 40 40 40 41 42 43 43 44 44 44 45 46 47 48 48 49 49 49 50 50 50 51 51 52 52 53 53 54
35 36 37 38 38 38 39 39 39 40 40 41 41 40 40 41 41 41 41 42 42 43 43 44 44 45 45 46 47 48 48 49 50 50 50 50 50 51 51 52 52 53 54 54
37 38 38 38 38 38 39 39 40 40 40 41 41 41 41 41 41 41 42 43 43 43 44 44 44 45 46 47 47 48 48 49 49 50 50 50 51 51 51 52 53 53 54 55
37 39 40 39 38 39 38 39 40 40 40 40 41 41 41 42 43 43 44 44 43 43 44 44 45 45 46 46 47 48 48 48 49 49 50 50 50 51 52 52 53 53 54 54
Wind_Direction
281 280 280 280 279 278 278 276 275 275 274 272 272 272 273 271 271 270 269 269 268 266 263 262 261 260 259 259 258 257 257 257 256 256 255 255 255 256 256 256 256 256 256 257
282 280 280 278 277 275 275 276 276 276 275 275 274 272 272 273 273 273 271 270 268 266 265 264 264 262 261 260 258 257 257 257 257 257 256 256 257 257 257 258 258 258 258 259
282 282 281 279 277 276 275 275 276 276 276 275 275 273 272 273 275 275 273 271 269 267 266 265 264 263 261 260 259 258 258 258 257 257 257 257 256 257 258 258 259 260 260 260
283 283 282 280 279 279 278 276 276 276 277 277 277 276 273 274 275 275 273 272 270 268 267 265 263 263 262 261 259 258 258 258 257 258 259 259 259 258 258 259 259 260 261 262
285 283 282 282 281 280 279 278 278 278 278 278 279 279 277 277 277 275 274 273 271 269 267 266 265 264 264 263 261 259 259 259 259 259 260 260 260 259 260 260 260 261 262 263
285 284 283 283 282 282 282 280 279 280 280 279 279 281 280 280 280 278 276 274 273 271 269 268 266 266 266 265 262 260 260 259 260 260 260 260 260 260 260 260 260 261 263 263
284 284 285 284 283 282 282 282 282 281 280 281 281 282 282 283 282 280 278 275 273 272 271 270 268 268 268 266 263 262 261 260 261 261 262 261 260 260 261 261 261 262 262 263
286 285 285 284 284 284 283 283 283 283 283 283 282 283 283 283 282 281 279 277 274 272 271 270 269 268 268 267 265 264 263 262 263 262 262 262 261 261 262 261 261 262 263 263
286 284 284 284 285 285 284 283 284 283 283 283 282 283 283 283 282 281 280 279 276 273 271 271 270 269 269 267 266 265 264 263 263 263 263 262 262 262 263 263 263 263 263 264
286 285 284 284 283 283 284 285 285 284 284 284 284 285 286 285 284 282 280 279 278 276 273 271 271 271 270 269 267 266 265 264 263 263 262 262 262 263 264 264 264 263 264 264
287 285 284 283 282 283 283 284 284 284 283 284 285 285 287 286 285 283 280 279 278 277 276 274 273 272 271 270 269 268 266 265 264 264 264 264 263 264 265 266 265 265 265 266
288 287 285 283 283 282 282 283 283 283 283 284 285 286 287 286 285 284 282 280 279 278 278 277 276 274 272 271 270 268 267 265 265 265 266 266 265 266 267 267 267 267 267 268
290 288 287 285 284 283 283 283 282 281 281 282 283 287 288 287 285 284 283 281 280 279 278 278 278 276 275 273 272 270 267 266 265 266 267 267 267 267 267 267 268 268 268 268
292 289 287 288 288 286 284 283 282 281 281 282 283 285 286 286 285 284 283 281 280 280 279 278 278 277 276 274 274 272 270 268 267 267 268 268 268 268 268 268 268 268 269 269
291 290 289 288 286 285 284 283 282 282 283 283 283 283 285 283 282 282 283 283 282 282 281 280 278 278 277 275 274 273 272 270 270 270 270 270 269 269 268 268 269 269 270 270
290 290 289 287 286 285 284 283 284 285 286 285 284 283 284 282 282 283 283 283 283 283 282 279 278 277 277 276 275 274 273 273 272 271 271 271 271 271 270 270 270 270 271 271
290 291 291 290 289 287 285 287 288 287 287 287 288 287 285 282 282 283 283 283 283 282 281 280 279 278 277 277 276 274 274 274 274 273 272 272 272 271 271 270 271 271 272 272
290 290 291 292 291 288 292 291 289 288 287 288 289 288 287 284 283 284 284 284 283 282 281 281 280 279 278 278 278 277 275 275 275 275 274 274 273 272 272 272 273 273 273 273
290 289 290 291 291 291 293 293 292 290 288 290 291 290 288 286 285 284 285 285 284 283 282 282 280 279 278 278 277 277 276 276 276 276 276 275 274 274 273 274 274 274 275 275
289 289 289 291 292 292 295 294 293 291 290 291 291 291 289 288 287 286 286 286 285 284 283 283 282 281 279 278 277 277 277 277 277 277 277 276 276 275 275 275 275 276 276 276
289 289 289 290 291 291 293 294 295 293 293 293 292 291 290 289 289 287 286 286 285 284 284 284 284 282 281 280 279 278 278 278 278 278 278 278 278 277 276 276 276 276 276 276
292 290 290 291 291 293 294 293 293 293 292 293 292 292 292 291 290 288 288 287 287 286 285 285 284 283 282 281 280 279 279 279 279 279 279 279 279 279 278 277 277 277 277 277
291 291 291 290 291 293 292 292 292 291 291 291 292 292 291 291 291 290 290 289 288 287 286 285 285 284 283 282 282 281 281 280 280 280 280 280 280 279 279 278 278 278 278 278
290 290 290 291 291 292 291 291 290 290 291 292 291 291 291 291 291 291 290 290 288 288 287 286 285 285 284 283 283 283 282 282 281 280 280 280 280 280 280 279 279 279 279 279
289 289 288 289 290 290 289 290 290 291 291 292 292 292 291 291 291 292 292 291 290 289 289 288 287 286 286 285 285 284 283 283 282 281 281 280 280 280 280 279 279 279 280 280
290 288 287 288 289 289 289 290 291 291 291 291 291 291 291 291 291 292 292 292 291 291 291 290 289 288 287 286 286 285 284 284 283 283 282 281 281 281 280 280 280 280 280 280
Height
5707 5706 5705 5703 5702 5701 5700 5698 5698 5698 5697 5696 5695 5696 5697 5697 5697 5696 5696 5697 5697 5697 5698 5699 5700 5702 5703 5705 5707 5709 5711 5713 5714 5716 5718 5720 5721 5723 5725 5726 5728 5729 5731 5732
5700 5699 5698 5695 5694 5693 5692 5691 5690 5690 5689 5688 5687 5688 5689 5689 5688 5688 5688 5688 5688 5689 5689 5690 5691 5692 5694 5695 5697 5699 5701 5703 5704 5706 5708 5710 5711 5713 5714 5716 5717 5718 5720 5721
5692 5692 5690 5688 5686 5685 5684 5684 5683 5682 5681 5679 5679 5679 5681 5682 5680 5680 5680 5679 5679 5680 5681 5681 5682 5683 5684 5686 5687 5689 5691 5692 5694 5696 5697 5699 5700 5702 5704 5705 5706 5707 5708 5710
5685 5685 5683 5681 5679 5677 5677 5676 5674 5673 5672 5672 5671 5670 5673 5673 5672 5672 5671 5671 5671 5671 5672 5672 5673 5673 5675 5676 5678 5679 5681 5682 5683 5685 5686 5688 5690 5692 5693 5694 5695 5696 5697 5698
5678 5677 5675 5674 5673 5670 5669 5668 5667 5665 5664 5663 5663 5661 5664 5664 5664 5663 5663 5662 5663 5663 5663 5663 5663 5664 5665 5666 5667 5669 5670 5671 5673 5674 5675 5677 5678 5680 5681 5683 5684 5684 5685 5686
5671 5669 5667 5666 5665 5663 5661 5660 5659 5657 5655 5655 5657 5654 5654 5656 5656 5655 5655 5654 5654 5654 5654 5654 5654 5655 5655 5656 5657 5658 5659 5661 5662 5663 5664 5665 5667 5668 5669 5670 5671 5672 5673 5673
5663 5662 5660 5659 5657 5656 5655 5653 5651 5649 5647 5647 5648 5645 5647 5647 5647 5646 5646 5645 5645 5644 5644 5644 5645 5645 5646 5646 5647 5648 5649 5650 5650 5651 5652 5653 5655 5656 5657 5658 5658 5659 5660 5660
5654 5654 5653 5651 5650 5648 5647 5646 5644 5642 5639 5639 5639 5637 5639 5639 5638 5637 5636 5636 5635 5635 5634 5635 5635 5635 5636 5636 5636 5636 5637 5638 5639 5640 5640 5641 5642 5643 5644 5645 5645 5646 5646 5647
5646 5646 5645 5643 5642 5640 5639 5637 5637 5634 5630 5629 5629 5629 5630 5630 5629 5628 5627 5626 5625 5625 5624 5625 5625 5625 5625 5625 5625 5625 5626 5626 5627 5628 5628 5629 5630 5630 5631 5631 5632 5632 5633 5633
5638 5637 5637 5636 5634 5633 5631 5630 5628 5625 5622 5620 5620 5620 5621 5621 5620 5619 5617 5616 5615 5614 5614 5614 5614 5614 5614 5614 5614 5614 5614 5614 5615 5616 5616 5617 5617 5618 5618 5618 5618 5619 5619 5619
5630 5628 5628 5627 5626 5625 5624 5622 5619 5616 5614 5612 5611 5614 5613 5611 5610 5609 5607 5605 5605 5604 5603 5603 5603 5602 5602 5602 5602 5602 5602 5602 5603 5603 5604 5604 5604 5605 5605 5605 5605 5606 5606 5606
5622 5620 5618 5618 5618 5615 5614 5613 5611 5609 5607 5604 5602 5605 5604 5602 5600 5598 5597 5595 5594 5593 5592 5592 5591 5591 5590 5590 5590 5590 5590 5590 5590 5591 5591 5591 5591 5592 5592 5592 5592 5592 5592 5592
5614 5612 5610 5609 5610 5608 5605 5604 5602 5600 5597 5595 5593 5596 5595 5592 5590 5588 5587 5585 5584 5583 5582 5581 5580 5579 5578 5578 5578 5577 5577 5578 5578 5578 5578 5578 5578 5578 5578 5579 5579 5578 5578 5578
5605 5603 5602 5601 5599 5597 5596 5595 5593 5590 5588 5586 5586 5586 5586 5583 5581 5579 5577 5575 5573 5572 5571 5570 5569 5568 5567 5566 5566 5565 5565 5565 5565 5565 5565 5565 5565 5565 5565 5565 5565 5565 5564 5564
5597 5596 5594 5592 5591 5588 5587 5586 5584 5581 5579 5577 5577 5576 5576 5574 5571 5569 5567 5565 5563 5562 5560 5559 5558 5557 5556 5555 5554 5553 5553 5552 5552 5552 5551 5551 5551 5550 5551 5551 5551 5550 5550 5550
5589 5587 5585 5584 5582 5579 5577 5577 5574 5572 5570 5568 5566 5566 5566 5563 5560 5558 5556 5555 5553 5552 5550 5548 5546 5545 5544 5543 5542 5541 5540 5540 5539 5538 5538 5538 5537 5537 5537 5537 5536 5536 5536 5535
5581 5578 5576 5574 5573 5569 5568 5569 5566 5564 5561 5559 5556 5557 5555 5553 5550 5548 5546 5544 5542 5540 5539 5537 5535 5534 5533 5531 5530 5529 5528 5527 5526 5526 5525 5524 5524 5523 5523 5522 5522 5522 5521 5520
5573 5570 5566 5564 5563 5558 5563 5560 5557 5554 5552 5549 5547 5545 5544 5542 5539 5537 5535 5533 5531 5529 5528 5526 5524 5522 5521 5520 5519 5517 5516 5515 5514 5513 5512 5511 5510 5509 5508 5508 5507 5507 5506 5505
5564 5561 5557 5554 5551 5549 5553 5551 5547 5543 5542 5541 5537 5535 5533 5531 5528 5527 5525 5522 5520 5518 5516 5514 5512 5511 5509 5508 5506 5505 5504 5502 5501 5500 5499 5497 5496 5495 5494 5493 5492 5491 5490 5489
5555 5552 5550 5546 5541 5539 5544 5541 5536 5534 5532 5532 5527 5525 5522 5519 5517 5518 5514 5511 5508 5506 5505 5503 5501 5499 5497 5495 5494 5492 5491 5489 5488 5486 5485 5483 5482 5480 5479 5478 5477 5475 5474 5473
5546 5543 5540 5537 5532 5531 5534 5530 5527 5524 5524 5521 5517 5514 5512 5509 5507 5505 5502 5500 5497 5494 5492 5490 5488 5486 5484 5483 5481 5479 5478 5476 5474 5472 5470 5469 5467 5465 5464 5462 5461 5459 5458 5457
5536 5533 5531 5528 5524 5525 5523 5519 5517 5514 5512 5509 5506 5503 5501 5498 5495 5493 5490 5488 5485 5483 5480 5478 5476 5474 5471 5469 5468 5466 5464 5462 5460 5458 5456 5454 5452 5450 5448 5447 5445 5443 5442 5440
5527 5525 5521 5519 5518 5515 5512 5509 5506 5504 5501 5498 5496 5493 5490 5487 5484 5481 5479 5476 5473 5470 5467 5465 5462 5460 5458 5456 5454 5452 5450 5448 5445 5443 5441 5439 5437 5434 5432 5430 5429 5427 5425 5423
5517 5515 5511 5509 5507 5505 5502 5498 5496 5493 5490 5488 5485 5482 5479 5476 5473 5470 5467 5463 5460 5457 5454 5452 5449 5447 5444 5442 5439 5437 5435 5432 5430 5428 5426 5424 5422 5419 5417 5414 5413 5411 5409 5407
5508 5504 5501 5498 5497 5494 5492 5488 5485 5482 5479 5476 5474 5470 5467 5464 5461 5458 5454 5451 5448 5444 5441 5438 5435 5433 5430 5428 5425 5422 5420 5417 5415 5413 5410 5408 5406 5404 5401 5399 5396 5394 5392 5389
5499 5494 5491 5488 5486 5483 5481 5477 5474 5471 5468 5465 5462 5459 5455 5452 5449 5445 5442 5438 5435 5431 5428 5425 5422 5419 5416 5413 5410 5407 5404 5402 5399 5397 5395 5392 5390 5387 5385 5383 5380 5377 5375 5372